sat.trackr.live / text

‹ back to catalog

STARLINK-35849

NORAD 66348 · 2025-254A

PAYLOAD ACTIVE UNKNOWN

§ Identity

Operator
Country
US
Launch date
2025-11-06
Launch site
AFWTR
Launch vehicle
Mass (kg)
RCS (m²)

Purposes: comms

External: N2YO · Heavens-Above · Gunter

§ Orbital elements

Epoch: 2026-09-20T13:46:52.550112Z

Period
93.85 min
Inclination
53.1585°
Eccentricity
0.0001124
Mean motion
15.34393357 rev/d
Perigee alt
462.0 km
Apogee alt
463.5 km
Semi-major
6,840.9 km
B*
3.6159e-4
RAAN
45.0888°
Arg perigee
98.3461°
Mean anomaly
261.7670°
Rev number
5,000

§ Raw data

STARLINK-358491 66348U 25254A   26263.57421933  .00011858  00000+0  36159-3 0  99972 66348  53.1585  45.0888 0001124  98.3461 261.7670 15.34393357 50005

JSON: /api/v1/satellites/66348 · /tle

For live sub-satellite position, see the globe view (requires WebGL).

§ Visibility from observer

Set your observer location to see the next 7 days of passes ≥ 10°. The values pass through the URL so the page stays shareable.

No JS? Fill the form by hand. The geolocation button needs JavaScript.